Location: Unspecified
(47.6579°N, 23.5637°E)
Time: 12:47:40
(UTC+02:00)

Envisat - Pass Details

Date: 05 December 2021
Orbit: 764 x 766 km, 98.2° (Epoch: 23 January)

Event Time Altitude Azimuth Distance (km) Brightness Sun altitude
Rises 06:53:01 0° 3° (N) 3,246 6.1 -10.5°
Reaches altitude 10° 06:55:46 10° 349° (NNW) 2,314 5.2 -10.1°
Maximum altitude 06:59:37 22° 299° (WNW) 1,619 4.1 -9.5°
Drops below altitude 10° 07:03:28 10° 250° (WSW) 2,302 5.1 -8.9°
Sets 07:06:12 0° 235° (SW) 3,223 5.9 -8.5°
